Location: Newark
(35.2672°N, 80.7344°W)
Time: 05:51:37
(UTC+00:00)

Courier 1B - Visible Passes

Search period start: 23 January 2020 00:00
Search period end: 02 February 2020 00:00
Orbit: 962 x 1209 km, 28.3° (Epoch: 22 January)

Date Brightness Start Highest point End Pass type
(mag) Time Alt. Az. Time Alt. Az. Time Alt. Az.
23 Jan 9.6 08:46:00 25° ESE 08:46:00 25° ESE 08:49:27 10° E visible
23 Jan 8.4 10:32:54 31° SW 10:36:23 51° S 10:43:56 10° ESE visible
24 Jan 8.3 09:42:33 49° S 09:42:33 49° S 09:49:56 10° ESE visible
24 Jan 8.6 11:29:27 11° W 11:36:29 48° S 11:43:57 10° ESE visible
25 Jan 9.4 08:52:10 28° ESE 08:52:10 28° ESE 08:55:55 10° E visible
25 Jan 8.4 10:39:04 30° WSW 10:42:37 50° S 10:50:07 10° ESE visible
26 Jan 10.4 08:01:46 10° E 08:01:46 10° E 08:01:50 10° E visible
26 Jan 8.2 09:48:40 51° S 09:48:45 51° S 09:56:12 10° ESE visible
26 Jan 8.8 11:35:42 10° W 11:42:40 40° SSW 11:49:50 10° SE visible
27 Jan 9.2 08:58:16 31° ESE 08:58:16 31° ESE 09:02:14 10° ESE visible
27 Jan 8.5 10:45:09 27° WSW 10:48:49 44° S 10:56:08 10° ESE visible
28 Jan 10.3 08:07:52 11° ESE 08:07:52 11° ESE 08:08:13 10° ESE visible
28 Jan 8.2 09:54:45 47° SSW 09:55:00 48° S 10:02:19 10° ESE visible
28 Jan 9.1 11:42:25 10° WSW 11:48:46 30° SSW 11:55:21 10° SE visible
29 Jan 9.1 09:04:21 32° SE 09:04:21 32° SE 09:08:25 10° ESE visible
29 Jan 8.8 10:51:15 22° WSW 10:55:00 35° SSW 11:01:50 10° SE visible
30 Jan 10.3 08:13:59 12° ESE 08:13:59 12° ESE 08:14:29 10° ESE visible
30 Jan 8.4 10:00:53 39° SSW 10:01:12 40° SSW 10:08:12 10° SE visible
30 Jan 9.5 11:49:37 10° WSW 11:54:49 20° SSW 12:00:10 10° SSE visible
31 Jan 9.1 09:10:32 29° SE 09:10:32 29° SE 09:14:27 10° ESE visible
31 Jan 9.1 10:57:26 17° WSW 11:01:06 25° SSW 11:07:05 10° SSE visible
01 Feb 10.2 08:20:12 12° ESE 08:20:12 12° ESE 08:20:38 10° ESE visible
01 Feb 8.8 10:07:06 30° SSW 10:07:22 30° SSW 10:13:43 10° SE visible
01 Feb 9.8 11:58:26 10° SW 12:00:50 12° SSW 12:03:16 10° S visible
